Location: Unspecified
(0.0000°N, 0.0000°E)
Time: 15:34:29
(UTC+00:00)

E-STAR-II - Visible Passes

Search period start: 28 May 2023 00:00
Search period end: 07 June 2023 00:00
Orbit: 404 x 554 km, 98.2° (Epoch: 28 May)

Date Brightness Start Highest point End Pass type
(mag) Time Alt. Az. Time Alt. Az. Time Alt. Az.
29 May ? 19:09:35 10° NNW 19:12:18 29° WNW 19:15:05 10° SW visible
30 May ? 18:43:10 10° NNE 18:46:15 78° ESE 18:49:25 10° S visible
31 May ? 18:17:40 10° NE 18:20:11 23° ESE 18:22:45 10° SSE visible
01 Jun ? 19:24:57 10° NW 19:27:03 17° WNW 19:29:12 10° WSW visible
02 Jun ? 18:57:49 10° N 19:00:51 54° WNW 19:04:00 10° SSW visible
03 Jun ? 18:31:40 10° NNE 18:34:38 40° ESE 18:37:42 10° S visible
04 Jun ? 19:40:55 10° WNW 19:41:23 10° W 19:41:53 10° W visible
05 Jun ? 19:12:14 10° NNW 19:15:03 30° W 19:17:58 10° SW visible
06 Jun ? 18:45:31 10° NNE 18:48:41 75° ESE 18:51:58 10° S visible
